* Astronomy

Members Login
Username 
 
Password 
    Remember Me  
Post Info TOPIC: Asteroid 2012 BO77


L

Posts: 131433
Date:
RE: Asteroid 2012 BO77
Permalink  
 


The 92 - 210 metre wide asteroid 2012 BO77 will make a close pass (58.8 lunar distances, 0.1510 AU), travelling at 14.79 km/second, to the Earth-Moon system on the 13th February, 2012 @ 18:29 UT ±00:09.

See more

The Lunar Distance (LD), the distance between Earth and the Moon, equals 384,401 km, (or 0.00256 AU).



__________________


L

Posts: 131433
Date:
Permalink  
 

Orbital elements:
2012 BO77                                                Earth MOID = 0.0662 AU
Epoch 2012 Mar. 14.0 TT = JDT 2456000.5                 MPC
M 317.92208              (2000.0)            P               Q
n   1.07474124     Peri.  326.93388     +0.06487201     +0.98340291
a   0.9439162      Node   306.22207     -0.86390881     -0.02963932
e   0.5566659      Incl.   12.12434     -0.49945290     +0.17899785
P   0.92           H   22.3           G   0.15           U   9

MPEC 2012 - B94



__________________
Page 1 of 1  sorted by
 
Quick Reply

Please log in to post quick replies.



Create your own FREE Forum
Report Abuse
Powered by ActiveBoard